Time,TemperatureF,DewpointF,PressureIn,WindDirection,WindDirectionDegrees,WindSpeedMPH,WindSpeedGustMPH,Humidity,HourlyPrecipIn,Conditions,Clouds,dailyrainin,SoftwareType,DateUTC
2013-04-26 00:05:00,56.9,35.2,30.07,SSW,201,7.0,13.0,44,0.00,,,0.00,Wunderground v.1.15,2013-04-26 07:05:00,
2013-04-26 00:11:00,56.2,35.1,30.08,SW,214,8.0,9.0,45,0.00,,,0.00,Wunderground v.1.15,2013-04-26 07:11:00,
2013-04-26 00:17:00,55.7,35.2,30.07,SSW,205,6.0,9.0,46,0.00,,,0.00,Wunderground v.1.15,2013-04-26 07:17:00,
2013-04-26 00:22:00,55.4,34.9,30.08,South,188,9.0,9.0,46,0.00,,,0.00,Wunderground v.1.15,2013-04-26 07:22:00,
2013-04-26 00:28:00,54.6,35.3,30.08,SSW,197,7.0,9.0,48,0.00,,,0.00,Wunderground v.1.15,2013-04-26 07:28:00,
2013-04-26 00:33:00,54.2,34.9,30.07,SSW,205,8.0,8.0,48,0.00,,,0.00,Wunderground v.1.15,2013-04-26 07:33:00,
2013-04-26 00:39:00,53.9,35.2,30.08,SSE,160,9.0,11.0,49,0.00,,,0.00,Wunderground v.1.15,2013-04-26 07:39:00,
2013-04-26 00:45:00,53.6,34.9,30.08,SSW,197,7.0,10.0,49,0.00,,,0.00,Wunderground v.1.15,2013-04-26 07:45:00,
2013-04-26 00:51:00,53.1,34.9,30.08,South,186,12.0,12.0,50,0.00,,,0.00,Wunderground v.1.15,2013-04-26 07:51:00,
2013-04-26 00:57:00,53.0,34.8,30.08,South,175,6.0,12.0,50,0.00,,,0.00,Wunderground v.1.15,2013-04-26 07:57:00,
2013-04-26 01:02:00,52.8,34.7,30.08,South,190,7.0,9.0,50,0.00,,,0.00,Wunderground v.1.15,2013-04-26 08:02:00,
2013-04-26 01:08:00,52.8,34.7,30.08,SSE,167,6.0,10.0,50,0.00,,,0.00,Wunderground v.1.15,2013-04-26 08:08:00,
2013-04-26 01:14:00,52.7,35.1,30.08,South,171,6.0,8.0,51,0.00,,,0.00,Wunderground v.1.15,2013-04-26 08:14:00,
2013-04-26 01:19:00,52.8,34.7,30.08,South,181,7.0,9.0,50,0.00,,,0.00,Wunderground v.1.15,2013-04-26 08:19:00,
2013-04-26 01:25:00,52.6,34.5,30.08,SSW,197,9.0,11.0,50,0.00,,,0.00,Wunderground v.1.15,2013-04-26 08:25:00,
2013-04-26 01:31:00,52.2,35.1,30.08,SSE,164,10.0,11.0,52,0.00,,,0.00,Wunderground v.1.15,2013-04-26 08:31:00,
2013-04-26 01:37:00,52.0,34.9,30.08,South,170,9.0,11.0,52,0.00,,,0.00,Wunderground v.1.15,2013-04-26 08:37:00,
2013-04-26 01:42:00,52.0,34.9,30.08,South,177,8.0,9.0,52,0.00,,,0.00,Wunderground v.1.15,2013-04-26 08:42:00,
2013-04-26 01:48:00,52.2,34.6,30.08,South,175,8.0,10.0,51,0.00,,,0.00,Wunderground v.1.15,2013-04-26 08:48:00,
2013-04-26 01:53:00,52.4,34.8,30.08,South,186,7.0,10.0,51,0.00,,,0.00,Wunderground v.1.15,2013-04-26 08:53:00,
2013-04-26 01:59:00,52.5,34.9,30.08,South,171,7.0,10.0,51,0.00,,,0.00,Wunderground v.1.15,2013-04-26 08:59:00,
2013-04-26 02:04:00,52.4,34.8,30.07,South,189,7.0,8.0,51,0.00,,,0.00,Wunderground v.1.15,2013-04-26 09:04:00,
2013-04-26 02:09:00,52.2,35.1,30.08,South,179,5.0,8.0,52,0.00,,,0.00,Wunderground v.1.15,2013-04-26 09:09:00,
2013-04-26 02:14:00,51.9,34.8,30.08,SSW,192,5.0,6.0,52,0.00,,,0.00,Wunderground v.1.15,2013-04-26 09:14:00,
2013-04-26 02:19:00,51.8,35.2,30.08,South,182,5.0,6.0,53,0.00,,,0.00,Wunderground v.1.15,2013-04-26 09:19:00,
2013-04-26 02:24:00,51.4,34.8,30.08,South,180,6.0,7.0,53,0.00,,,0.00,Wunderground v.1.15,2013-04-26 09:24:00,
2013-04-26 02:29:00,50.9,34.8,30.08,South,170,5.0,8.0,54,0.00,,,0.00,Wunderground v.1.15,2013-04-26 09:29:00,
2013-04-26 02:34:00,50.6,35.0,30.08,South,186,4.0,8.0,55,0.00,,,0.00,Wunderground v.1.15,2013-04-26 09:34:00,
2013-04-26 02:39:00,50.0,34.9,30.08,South,175,7.0,8.0,56,0.00,,,0.00,Wunderground v.1.15,2013-04-26 09:39:00,
2013-04-26 02:44:00,49.7,35.1,30.08,South,180,7.0,9.0,57,0.00,,,0.00,Wunderground v.1.15,2013-04-26 09:44:00,
2013-04-26 02:49:00,50.1,35.4,30.08,South,177,11.0,12.0,57,0.00,,,0.00,Wunderground v.1.15,2013-04-26 09:49:00,
2013-04-26 02:54:00,50.7,35.1,30.08,SSW,200,8.0,11.0,55,0.00,,,0.00,Wunderground v.1.15,2013-04-26 09:54:00,
2013-04-26 02:59:00,50.2,35.1,30.09,SSW,194,8.0,11.0,56,0.00,,,0.00,Wunderground v.1.15,2013-04-26 09:59:00,
2013-04-26 03:04:00,49.7,35.1,30.09,SW,216,11.0,11.0,57,0.00,,,0.00,Wunderground v.1.15,2013-04-26 10:04:00,
2013-04-26 03:09:00,49.5,35.3,30.10,SSW,213,10.0,12.0,58,0.00,,,0.00,Wunderground v.1.15,2013-04-26 10:09:00,
2013-04-26 03:14:00,49.6,35.0,30.10,SSW,201,7.0,12.0,57,0.00,,,0.00,Wunderground v.1.15,2013-04-26 10:14:00,
2013-04-26 03:19:00,49.1,34.9,30.10,SSW,202,7.0,12.0,58,0.00,,,0.00,Wunderground v.1.15,2013-04-26 10:19:00,
2013-04-26 03:24:00,48.8,35.1,30.10,South,186,11.0,11.0,59,0.00,,,0.00,Wunderground v.1.15,2013-04-26 10:24:00,
2013-04-26 03:29:00,49.2,35.0,30.10,SSW,195,7.0,11.0,58,0.00,,,0.00,Wunderground v.1.15,2013-04-26 10:29:00,
2013-04-26 03:34:00,49.1,34.9,30.10,South,180,8.0,11.0,58,0.00,,,0.00,Wunderground v.1.15,2013-04-26 10:34:00,
2013-04-26 03:39:00,49.3,35.1,30.10,South,179,11.0,12.0,58,0.00,,,0.00,Wunderground v.1.15,2013-04-26 10:39:00,
2013-04-26 03:44:00,49.4,35.2,30.10,South,177,8.0,12.0,58,0.00,,,0.00,Wunderground v.1.15,2013-04-26 10:44:00,
2013-04-26 03:49:00,49.4,35.2,30.10,South,190,8.0,12.0,58,0.00,,,0.00,Wunderground v.1.15,2013-04-26 10:49:00,
2013-04-26 03:55:00,49.3,35.1,30.10,South,180,9.0,10.0,58,0.00,,,0.00,Wunderground v.1.15,2013-04-26 10:55:00,
2013-04-26 04:00:00,49.4,35.2,30.10,South,187,8.0,8.0,58,0.00,,,0.00,Wunderground v.1.15,2013-04-26 11:00:00,
2013-04-26 04:05:00,49.4,35.7,30.10,South,170,10.0,11.0,59,0.00,,,0.00,Wunderground v.1.15,2013-04-26 11:05:00,
2013-04-26 04:10:00,49.5,35.3,30.10,SSE,163,10.0,11.0,58,0.00,,,0.00,Wunderground v.1.15,2013-04-26 11:10:00,
2013-04-26 04:15:00,49.5,35.8,30.10,South,180,17.0,17.0,59,0.00,,,0.00,Wunderground v.1.15,2013-04-26 11:15:00,
2013-04-26 04:20:00,49.2,35.5,30.10,SSW,194,8.0,11.0,59,0.00,,,0.00,Wunderground v.1.15,2013-04-26 11:20:00,
2013-04-26 04:25:00,49.0,35.7,30.10,South,190,10.0,16.0,60,0.00,,,0.00,Wunderground v.1.15,2013-04-26 11:25:00,
2013-04-26 04:30:00,48.8,35.5,30.11,South,169,13.0,14.0,60,0.00,,,0.00,Wunderground v.1.15,2013-04-26 11:30:00,
2013-04-26 04:35:00,48.6,35.3,30.11,South,186,10.0,17.0,60,0.00,,,0.00,Wunderground v.1.15,2013-04-26 11:35:00,
2013-04-26 04:40:00,48.6,35.3,30.11,SSE,167,12.0,15.0,60,0.00,,,0.00,Wunderground v.1.15,2013-04-26 11:40:00,
2013-04-26 04:45:00,48.4,35.1,30.11,South,183,12.0,17.0,60,0.00,,,0.00,Wunderground v.1.15,2013-04-26 11:45:00,
2013-04-26 04:50:00,48.0,35.2,30.11,South,180,10.0,12.0,61,0.00,,,0.00,Wunderground v.1.15,2013-04-26 11:50:00,
2013-04-26 04:55:00,47.8,35.4,30.11,South,184,10.0,12.0,62,0.00,,,0.00,Wunderground v.1.15,2013-04-26 11:55:00,
2013-04-26 05:00:00,47.6,35.2,30.11,South,179,9.0,11.0,62,0.00,,,0.00,Wunderground v.1.15,2013-04-26 12:00:00,
2013-04-26 05:05:00,47.4,35.4,30.11,South,184,10.0,14.0,63,0.00,,,0.00,Wunderground v.1.15,2013-04-26 12:05:00,
2013-04-26 05:10:00,47.4,35.4,30.11,South,185,8.0,10.0,63,0.00,,,0.00,Wunderground v.1.15,2013-04-26 12:10:00,
2013-04-26 05:15:00,47.2,35.2,30.11,South,169,9.0,12.0,63,0.00,,,0.00,Wunderground v.1.15,2013-04-26 12:15:00,
2013-04-26 05:20:00,47.1,35.5,30.11,South,177,11.0,11.0,64,0.00,,,0.00,Wunderground v.1.15,2013-04-26 12:20:00,
2013-04-26 05:25:00,47.0,35.4,30.11,South,187,9.0,13.0,64,0.00,,,0.00,Wunderground v.1.15,2013-04-26 12:25:00,
2013-04-26 05:30:00,46.8,35.3,30.12,South,180,10.0,12.0,64,0.00,,,0.00,Wunderground v.1.15,2013-04-26 12:30:00,
2013-04-26 05:35:00,46.6,35.5,30.12,South,169,10.0,13.0,65,0.00,,,0.00,Wunderground v.1.15,2013-04-26 12:35:00,
2013-04-26 05:40:00,46.5,35.4,30.12,South,179,9.0,12.0,65,0.00,,,0.00,Wunderground v.1.15,2013-04-26 12:40:00,
2013-04-26 05:45:00,46.3,35.6,30.12,South,178,13.0,13.0,66,0.00,,,0.00,Wunderground v.1.15,2013-04-26 12:45:00,
2013-04-26 05:50:00,46.1,35.4,30.12,South,173,8.0,10.0,66,0.00,,,0.00,Wunderground v.1.15,2013-04-26 12:50:00,
2013-04-26 05:55:00,46.0,35.3,30.12,South,174,11.0,13.0,66,0.00,,,0.00,Wunderground v.1.15,2013-04-26 12:55:00,
2013-04-26 06:00:00,45.9,35.6,30.13,South,178,10.0,14.0,67,0.00,,,0.00,Wunderground v.1.15,2013-04-26 13:00:00,
2013-04-26 06:05:00,45.6,35.3,30.13,South,185,9.0,14.0,67,0.00,,,0.00,Wunderground v.1.15,2013-04-26 13:05:00,
2013-04-26 06:10:00,45.6,35.6,30.13,South,186,11.0,11.0,68,0.00,,,0.00,Wunderground v.1.15,2013-04-26 13:10:00,
2013-04-26 06:15:00,45.8,35.8,30.13,South,178,10.0,14.0,68,0.00,,,0.00,Wunderground v.1.15,2013-04-26 13:15:00,
2013-04-26 06:20:00,45.7,35.7,30.13,SSW,195,8.0,11.0,68,0.00,,,0.00,Wunderground v.1.15,2013-04-26 13:20:00,
2013-04-26 06:25:00,45.8,35.8,30.14,South,182,13.0,15.0,68,0.00,,,0.00,Wunderground v.1.15,2013-04-26 13:25:00,
2013-04-26 06:30:00,45.8,35.8,30.14,South,180,10.0,14.0,68,0.00,,,0.00,Wunderground v.1.15,2013-04-26 13:30:00,
2013-04-26 06:35:00,45.6,35.6,30.14,South,182,11.0,14.0,68,0.00,,,0.00,Wunderground v.1.15,2013-04-26 13:35:00,
2013-04-26 06:40:00,45.5,35.9,30.13,SSE,164,9.0,14.0,69,0.00,,,0.00,Wunderground v.1.15,2013-04-26 13:40:00,
2013-04-26 06:45:00,45.5,35.9,30.13,South,175,12.0,16.0,69,0.00,,,0.00,Wunderground v.1.15,2013-04-26 13:45:00,
2013-04-26 06:50:00,45.5,35.9,30.14,South,182,11.0,14.0,69,0.00,,,0.00,Wunderground v.1.15,2013-04-26 13:50:00,
2013-04-26 06:55:00,45.5,35.9,30.14,SSE,166,10.0,14.0,69,0.00,,,0.00,Wunderground v.1.15,2013-04-26 13:55:00,
2013-04-26 07:00:00,45.5,35.9,30.14,South,180,10.0,17.0,69,0.00,,,0.00,Wunderground v.1.15,2013-04-26 14:00:00,
2013-04-26 07:05:00,45.7,36.1,30.14,South,170,11.0,17.0,69,0.00,,,0.00,Wunderground v.1.15,2013-04-26 14:05:00,
2013-04-26 07:10:00,45.9,36.3,30.15,South,169,8.0,12.0,69,0.00,,,0.00,Wunderground v.1.15,2013-04-26 14:10:00,
2013-04-26 07:16:00,46.1,36.5,30.15,South,183,10.0,13.0,69,0.00,,,0.00,Wunderground v.1.15,2013-04-26 14:16:00,
2013-04-26 07:21:00,46.2,36.6,30.15,South,184,12.0,12.0,69,0.00,,,0.00,Wunderground v.1.15,2013-04-26 14:21:00,
2013-04-26 07:26:00,46.5,36.9,30.16,South,171,7.0,12.0,69,0.00,,,0.00,Wunderground v.1.15,2013-04-26 14:26:00,
2013-04-26 07:31:00,46.7,37.1,30.16,South,190,6.0,9.0,69,0.00,,,0.00,Wunderground v.1.15,2013-04-26 14:31:00,
2013-04-26 07:36:00,47.2,37.5,30.16,SSW,198,7.0,9.0,69,0.00,,,0.00,Wunderground v.1.15,2013-04-26 14:36:00,
2013-04-26 07:41:00,47.6,37.6,30.16,SSW,192,6.0,8.0,68,0.00,,,0.00,Wunderground v.1.15,2013-04-26 14:41:00,
2013-04-26 07:46:00,48.1,38.0,30.16,SSW,211,8.0,10.0,68,0.00,,,0.00,Wunderground v.1.15,2013-04-26 14:46:00,
2013-04-26 07:51:00,48.5,38.4,30.16,SSW,213,7.0,11.0,68,0.00,,,0.00,Wunderground v.1.15,2013-04-26 14:51:00,
2013-04-26 07:56:00,49.0,38.5,30.16,SSW,192,7.0,11.0,67,0.00,,,0.00,Wunderground v.1.15,2013-04-26 14:56:00,
2013-04-26 08:01:00,49.4,38.9,30.17,South,188,7.0,9.0,67,0.00,,,0.00,Wunderground v.1.15,2013-04-26 15:01:00,
2013-04-26 08:06:00,49.8,38.9,30.17,SSW,196,7.0,10.0,66,0.00,,,0.00,Wunderground v.1.15,2013-04-26 15:06:00,
2013-04-26 08:11:00,50.0,38.7,30.17,SSW,192,6.0,9.0,65,0.00,,,0.00,Wunderground v.1.15,2013-04-26 15:11:00,
2013-04-26 08:16:00,50.5,39.2,30.17,SSW,203,5.0,9.0,65,0.00,,,0.00,Wunderground v.1.15,2013-04-26 15:16:00,
2013-04-26 08:21:00,50.9,39.1,30.16,SSW,192,8.0,9.0,64,0.00,,,0.00,Wunderground v.1.15,2013-04-26 15:21:00,
2013-04-26 08:26:00,51.4,39.6,30.17,SSW,192,7.0,9.0,64,0.00,,,0.00,Wunderground v.1.15,2013-04-26 15:26:00,
2013-04-26 08:32:00,51.5,39.7,30.17,South,175,6.0,7.0,64,0.00,,,0.00,Wunderground v.1.15,2013-04-26 15:32:00,
2013-04-26 08:37:00,51.8,39.6,30.17,South,176,3.0,7.0,63,0.00,,,0.00,Wunderground v.1.15,2013-04-26 15:37:00,
2013-04-26 08:42:00,51.9,39.7,30.18,South,185,7.0,7.0,63,0.00,,,0.00,Wunderground v.1.15,2013-04-26 15:42:00,
2013-04-26 08:47:00,52.1,39.9,30.17,SSE,167,3.0,7.0,63,0.00,,,0.00,Wunderground v.1.15,2013-04-26 15:47:00,
2013-04-26 08:52:00,52.5,39.8,30.18,South,188,4.0,7.0,62,0.00,,,0.00,Wunderground v.1.15,2013-04-26 15:52:00,
2013-04-26 08:57:00,52.8,40.1,30.18,South,188,3.0,7.0,62,0.00,,,0.00,Wunderground v.1.15,2013-04-26 15:57:00,
2013-04-26 09:02:00,53.3,40.6,30.18,South,188,2.0,4.0,62,0.00,,,0.00,Wunderground v.1.15,2013-04-26 16:02:00,
2013-04-26 09:07:00,54.0,40.8,30.18,South,185,3.0,5.0,61,0.00,,,0.00,Wunderground v.1.15,2013-04-26 16:07:00,
2013-04-26 09:12:00,54.4,40.8,30.18,South,185,0.0,5.0,60,0.00,,,0.00,Wunderground v.1.15,2013-04-26 16:12:00,
2013-04-26 09:17:00,54.9,40.8,30.18,South,185,2.0,5.0,59,0.00,,,0.00,Wunderground v.1.15,2013-04-26 16:17:00,
2013-04-26 09:22:00,55.4,41.3,30.18,South,184,0.0,2.0,59,0.00,,,0.00,Wunderground v.1.15,2013-04-26 16:22:00,
2013-04-26 09:27:00,55.9,41.3,30.18,South,184,0.0,2.0,58,0.00,,,0.00,Wunderground v.1.15,2013-04-26 16:27:00,
2013-04-26 09:32:00,56.9,41.8,30.18,South,184,0.0,1.0,57,0.00,,,0.00,Wunderground v.1.15,2013-04-26 16:32:00,
2013-04-26 09:37:00,57.7,41.6,30.18,South,185,3.0,5.0,55,0.00,,,0.00,Wunderground v.1.15,2013-04-26 16:37:00,
2013-04-26 09:42:00,57.5,41.4,30.18,SSE,166,1.0,4.0,55,0.00,,,0.00,Wunderground v.1.15,2013-04-26 16:42:00,
2013-04-26 09:48:00,57.7,41.6,30.18,SSE,166,2.0,4.0,55,0.00,,,0.00,Wunderground v.1.15,2013-04-26 16:48:00,
2013-04-26 09:54:00,58.4,41.8,30.18,South,186,0.0,4.0,54,0.00,,,0.00,Wunderground v.1.15,2013-04-26 16:54:00,
2013-04-26 09:59:00,58.7,41.1,30.18,West,267,4.0,7.0,52,0.00,,,0.00,Wunderground v.1.15,2013-04-26 16:59:00,
2013-04-26 10:04:00,58.8,41.7,30.18,SW,231,5.0,5.0,53,0.00,,,0.00,Wunderground v.1.15,2013-04-26 17:04:00,
2013-04-26 10:09:00,59.3,41.7,30.18,SW,216,7.0,8.0,52,0.00,,,0.00,Wunderground v.1.15,2013-04-26 17:09:00,
2013-04-26 10:14:00,59.8,41.6,30.18,SSW,200,1.0,11.0,51,0.00,,,0.00,Wunderground v.1.15,2013-04-26 17:14:00,
2013-04-26 10:19:00,59.8,41.6,30.18,SW,236,1.0,11.0,51,0.00,,,0.00,Wunderground v.1.15,2013-04-26 17:19:00,
2013-04-26 10:24:00,60.4,41.1,30.18,South,172,8.0,10.0,49,0.00,,,0.00,Wunderground v.1.15,2013-04-26 17:24:00,
2013-04-26 10:29:00,60.5,41.8,30.18,SSW,210,7.0,15.0,50,0.00,,,0.00,Wunderground v.1.15,2013-04-26 17:29:00,
2013-04-26 10:34:00,60.6,41.3,30.19,SW,226,8.0,11.0,49,0.00,,,0.00,Wunderground v.1.15,2013-04-26 17:34:00,
2013-04-26 10:39:00,61.0,41.2,30.18,SW,221,8.0,12.0,48,0.00,,,0.00,Wunderground v.1.15,2013-04-26 17:39:00,
2013-04-26 10:44:00,61.6,41.2,30.18,SW,214,13.0,14.0,47,0.00,,,0.00,Wunderground v.1.15,2013-04-26 17:44:00,
2013-04-26 10:49:00,61.6,41.2,30.18,SSW,205,9.0,18.0,47,0.00,,,0.00,Wunderground v.1.15,2013-04-26 17:49:00,
2013-04-26 10:54:00,61.8,40.8,30.18,SW,225,10.0,14.0,46,0.00,,,0.00,Wunderground v.1.15,2013-04-26 17:54:00,
2013-04-26 10:59:00,62.3,41.8,30.18,SW,229,8.0,14.0,47,0.00,,,0.00,Wunderground v.1.15,2013-04-26 17:59:00,
2013-04-26 11:04:00,62.2,42.8,30.18,SW,227,14.0,14.0,49,0.00,,,0.00,Wunderground v.1.15,2013-04-26 18:04:00,
2013-04-26 11:09:00,62.5,42.5,30.18,SSW,198,9.0,16.0,48,0.00,,,0.00,Wunderground v.1.15,2013-04-26 18:09:00,
2013-04-26 11:14:00,62.7,42.7,30.18,South,186,8.0,16.0,48,0.00,,,0.00,Wunderground v.1.15,2013-04-26 18:14:00,
2013-04-26 11:19:00,62.9,43.4,30.18,South,184,9.0,16.0,49,0.00,,,0.00,Wunderground v.1.15,2013-04-26 18:19:00,
2013-04-26 11:24:00,63.4,43.4,30.18,SSW,201,8.0,17.0,48,0.00,,,0.00,Wunderground v.1.15,2013-04-26 18:24:00,
2013-04-26 11:30:00,63.3,42.7,30.18,SSW,202,9.0,10.0,47,0.00,,,0.00,Wunderground v.1.15,2013-04-26 18:30:00,
2013-04-26 11:35:00,63.5,43.4,30.17,SSW,209,12.0,16.0,48,0.00,,,0.00,Wunderground v.1.15,2013-04-26 18:35:00,
2013-04-26 11:40:00,63.9,42.1,30.18,South,186,9.0,10.0,45,0.00,,,0.00,Wunderground v.1.15,2013-04-26 18:40:00,
2013-04-26 11:45:00,63.8,43.2,30.18,SW,223,10.0,18.0,47,0.00,,,0.00,Wunderground v.1.15,2013-04-26 18:45:00,
2013-04-26 11:50:00,63.8,42.6,30.17,South,173,13.0,13.0,46,0.00,,,0.00,Wunderground v.1.15,2013-04-26 18:50:00,
2013-04-26 11:55:00,63.8,43.2,30.17,SSW,204,8.0,17.0,47,0.00,,,0.00,Wunderground v.1.15,2013-04-26 18:55:00,
2013-04-26 12:00:00,64.4,42.0,30.17,SSW,198,17.0,17.0,44,0.00,,,0.00,Wunderground v.1.15,2013-04-26 19:00:00,
2013-04-26 12:05:00,64.3,42.5,30.17,SW,223,13.0,17.0,45,0.00,,,0.00,Wunderground v.1.15,2013-04-26 19:05:00,
2013-04-26 12:10:00,64.8,42.9,30.17,WSW,238,9.0,13.0,45,0.00,,,0.00,Wunderground v.1.15,2013-04-26 19:10:00,
2013-04-26 12:15:00,64.8,42.4,30.17,SW,223,8.0,13.0,44,0.00,,,0.00,Wunderground v.1.15,2013-04-26 19:15:00,
2013-04-26 12:20:00,64.8,42.9,30.17,SSW,207,11.0,12.0,45,0.00,,,0.00,Wunderground v.1.15,2013-04-26 19:20:00,
2013-04-26 12:25:00,65.0,43.7,30.17,SSW,194,13.0,20.0,46,0.00,,,0.00,Wunderground v.1.15,2013-04-26 19:25:00,
2013-04-26 12:30:00,65.0,43.7,30.17,SSW,196,18.0,19.0,46,0.00,,,0.00,Wunderground v.1.15,2013-04-26 19:30:00,
2013-04-26 12:35:00,65.2,43.9,30.17,SW,219,13.0,19.0,46,0.00,,,0.00,Wunderground v.1.15,2013-04-26 19:35:00,
2013-04-26 12:40:00,65.6,43.7,30.17,SW,217,10.0,13.0,45,0.00,,,0.00,Wunderground v.1.15,2013-04-26 19:40:00,
2013-04-26 12:45:00,66.1,42.9,30.17,SSW,192,15.0,21.0,43,0.00,,,0.00,Wunderground v.1.15,2013-04-26 19:45:00,
2013-04-26 12:50:00,66.1,42.9,30.16,SSW,202,12.0,14.0,43,0.00,,,0.00,Wunderground v.1.15,2013-04-26 19:50:00,
2013-04-26 12:55:00,66.8,43.0,30.16,SSW,196,9.0,18.0,42,0.00,,,0.00,Wunderground v.1.15,2013-04-26 19:55:00,
2013-04-26 13:00:00,66.7,42.2,30.16,South,188,9.0,17.0,41,0.00,,,0.00,Wunderground v.1.15,2013-04-26 20:00:00,
2013-04-26 13:06:00,66.6,42.8,30.16,SSW,200,16.0,18.0,42,0.00,,,0.00,Wunderground v.1.15,2013-04-26 20:06:00,
2013-04-26 13:11:00,67.2,43.3,30.16,SSW,196,15.0,19.0,42,0.00,,,0.00,Wunderground v.1.15,2013-04-26 20:11:00,
2013-04-26 13:16:00,67.5,42.3,30.16,SW,235,9.0,20.0,40,0.00,,,0.00,Wunderground v.1.15,2013-04-26 20:16:00,
2013-04-26 13:21:00,67.4,42.9,30.16,SW,214,13.0,17.0,41,0.00,,,0.00,Wunderground v.1.15,2013-04-26 20:21:00,
2013-04-26 13:26:00,67.4,42.2,30.16,South,190,13.0,21.0,40,0.00,,,0.00,Wunderground v.1.15,2013-04-26 20:26:00,
2013-04-26 13:31:00,67.5,42.3,30.16,South,170,7.0,15.0,40,0.00,,,0.00,Wunderground v.1.15,2013-04-26 20:31:00,
2013-04-26 13:36:00,68.2,42.9,30.16,SSW,192,20.0,20.0,40,0.00,,,0.00,Wunderground v.1.15,2013-04-26 20:36:00,
2013-04-26 13:41:00,67.7,42.5,30.16,SSW,204,13.0,16.0,40,0.00,,,0.00,Wunderground v.1.15,2013-04-26 20:41:00,
2013-04-26 13:46:00,67.9,42.7,30.16,South,173,10.0,22.0,40,0.00,,,0.00,Wunderground v.1.15,2013-04-26 20:46:00,
2013-04-26 13:51:00,67.9,43.3,30.16,SSW,204,13.0,21.0,41,0.00,,,0.00,Wunderground v.1.15,2013-04-26 20:51:00,
2013-04-26 13:56:00,68.0,42.1,30.16,South,187,16.0,22.0,39,0.00,,,0.00,Wunderground v.1.15,2013-04-26 20:56:00,
2013-04-26 14:01:00,68.2,42.3,30.16,SSW,202,9.0,15.0,39,0.00,,,0.00,Wunderground v.1.15,2013-04-26 21:01:00,
2013-04-26 14:06:00,68.7,42.7,30.16,South,180,14.0,19.0,39,0.00,,,0.00,Wunderground v.1.15,2013-04-26 21:06:00,
2013-04-26 14:11:00,68.9,44.2,30.16,SW,219,14.0,14.0,41,0.00,,,0.00,Wunderground v.1.15,2013-04-26 21:11:00,
2013-04-26 14:16:00,68.6,42.6,30.16,SSW,196,15.0,21.0,39,0.00,,,0.00,Wunderground v.1.15,2013-04-26 21:16:00,
2013-04-26 14:21:00,68.5,42.6,30.15,SSW,210,15.0,21.0,39,0.00,,,0.00,Wunderground v.1.15,2013-04-26 21:21:00,
2013-04-26 14:26:00,68.7,43.4,30.15,SSW,213,9.0,21.0,40,0.00,,,0.00,Wunderground v.1.15,2013-04-26 21:26:00,
2013-04-26 14:32:00,69.0,39.4,30.15,SSW,207,10.0,18.0,34,0.00,,,0.00,Wunderground v.1.15,2013-04-26 21:32:00,
2013-04-26 14:37:00,69.5,39.9,30.15,SW,217,21.0,21.0,34,0.00,,,0.00,Wunderground v.1.15,2013-04-26 21:37:00,
2013-04-26 14:42:00,69.7,38.5,30.15,SSW,209,14.0,21.0,32,0.00,,,0.00,Wunderground v.1.15,2013-04-26 21:42:00,
2013-04-26 14:47:00,69.9,37.9,30.15,SW,221,18.0,21.0,31,0.00,,,0.00,Wunderground v.1.15,2013-04-26 21:47:00,
2013-04-26 14:52:00,70.2,36.4,30.15,SW,215,20.0,22.0,29,0.00,,,0.00,Wunderground v.1.15,2013-04-26 21:52:00,
2013-04-26 14:57:00,69.9,37.9,30.14,WSW,254,14.0,22.0,31,0.00,,,0.00,Wunderground v.1.15,2013-04-26 21:57:00,
2013-04-26 15:02:00,70.3,37.4,30.14,SW,221,14.0,20.0,30,0.00,,,0.00,Wunderground v.1.15,2013-04-26 22:02:00,
2013-04-26 15:07:00,69.6,36.8,30.14,WSW,239,16.0,22.0,30,0.00,,,0.00,Wunderground v.1.15,2013-04-26 22:07:00,
2013-04-26 15:12:00,70.0,37.1,30.14,SW,232,19.0,22.0,30,0.00,,,0.00,Wunderground v.1.15,2013-04-26 22:12:00,
2013-04-26 15:17:00,69.9,37.0,30.14,SSW,208,14.0,24.0,30,0.00,,,0.00,Wunderground v.1.15,2013-04-26 22:17:00,
2013-04-26 15:22:00,69.9,35.3,30.14,SW,236,11.0,21.0,28,0.00,,,0.00,Wunderground v.1.15,2013-04-26 22:22:00,
2013-04-26 15:27:00,70.1,37.2,30.14,West,260,13.0,23.0,30,0.00,,,0.00,Wunderground v.1.15,2013-04-26 22:27:00,
2013-04-26 15:33:00,70.3,35.6,30.14,WSW,238,17.0,23.0,28,0.00,,,0.00,Wunderground v.1.15,2013-04-26 22:33:00,
2013-04-26 15:38:00,70.6,35.9,30.14,SW,231,20.0,23.0,28,0.00,,,0.00,Wunderground v.1.15,2013-04-26 22:38:00,
2013-04-26 15:44:00,70.2,36.4,30.14,SW,235,17.0,22.0,29,0.00,,,0.00,Wunderground v.1.15,2013-04-26 22:44:00,
2013-04-26 15:49:00,70.2,36.4,30.14,SW,220,16.0,22.0,29,0.00,,,0.00,Wunderground v.1.15,2013-04-26 22:49:00,
2013-04-26 15:54:00,69.8,35.2,30.14,WSW,257,9.0,22.0,28,0.00,,,0.00,Wunderground v.1.15,2013-04-26 22:54:00,
2013-04-26 15:59:00,69.7,36.0,30.14,SW,216,19.0,22.0,29,0.00,,,0.00,Wunderground v.1.15,2013-04-26 22:59:00,
2013-04-26 16:04:00,69.7,36.0,30.13,SW,219,16.0,18.0,29,0.00,,,0.00,Wunderground v.1.15,2013-04-26 23:04:00,
2013-04-26 16:09:00,69.8,36.1,30.13,SW,223,10.0,22.0,29,0.00,,,0.00,Wunderground v.1.15,2013-04-26 23:09:00,
2013-04-26 16:14:00,69.9,35.3,30.13,WSW,248,14.0,22.0,28,0.00,,,0.00,Wunderground v.1.15,2013-04-26 23:14:00,
2013-04-26 16:19:00,70.5,36.7,30.13,WSW,257,15.0,22.0,29,0.00,,,0.00,Wunderground v.1.15,2013-04-26 23:19:00,
2013-04-26 16:24:00,70.5,36.7,30.13,SW,219,12.0,20.0,29,0.00,,,0.00,Wunderground v.1.15,2013-04-26 23:24:00,
2013-04-26 16:29:00,70.4,36.6,30.13,WSW,250,10.0,22.0,29,0.00,,,0.00,Wunderground v.1.15,2013-04-26 23:29:00,
2013-04-26 16:34:00,70.5,35.8,30.13,WSW,240,17.0,21.0,28,0.00,,,0.00,Wunderground v.1.15,2013-04-26 23:34:00,
2013-04-26 16:39:00,70.8,35.1,30.13,WSW,251,14.0,21.0,27,0.00,,,0.00,Wunderground v.1.15,2013-04-26 23:39:00,
2013-04-26 16:44:00,71.0,36.2,30.13,WSW,247,13.0,17.0,28,0.00,,,0.00,Wunderground v.1.15,2013-04-26 23:44:00,
2013-04-26 16:49:00,70.9,36.1,30.13,WSW,240,15.0,18.0,28,0.00,,,0.00,Wunderground v.1.15,2013-04-26 23:49:00,
2013-04-26 17:05:00,70.8,37.0,30.13,SW,225,10.0,18.0,29,0.00,,,0.00,Wunderground v.1.15,2013-04-27 00:05:00,
2013-04-26 17:10:00,70.5,37.6,30.13,SW,225,7.0,11.0,30,0.00,,,0.00,Wunderground v.1.15,2013-04-27 00:10:00,
2013-04-26 17:15:00,70.4,37.5,30.13,SW,229,17.0,17.0,30,0.00,,,0.00,Wunderground v.1.15,2013-04-27 00:15:00,
2013-04-26 17:20:00,70.1,37.2,30.12,SW,232,12.0,20.0,30,0.00,,,0.00,Wunderground v.1.15,2013-04-27 00:20:00,
2013-04-26 17:25:00,70.6,38.5,30.12,SW,221,12.0,20.0,31,0.00,,,0.00,Wunderground v.1.15,2013-04-27 00:25:00,
2013-04-26 17:30:00,71.2,38.2,30.12,SW,229,13.0,16.0,30,0.00,,,0.00,Wunderground v.1.15,2013-04-27 00:30:00,
2013-04-26 17:35:00,71.1,38.1,30.12,WSW,245,11.0,19.0,30,0.00,,,0.00,Wunderground v.1.15,2013-04-27 00:35:00,
2013-04-26 17:40:00,71.1,38.1,30.13,SW,225,12.0,15.0,30,0.00,,,0.00,Wunderground v.1.15,2013-04-27 00:40:00,
2013-04-26 17:45:00,70.6,37.6,30.12,SSW,211,11.0,20.0,30,0.00,,,0.00,Wunderground v.1.15,2013-04-27 00:45:00,
2013-04-26 17:50:00,70.1,37.2,30.12,SSW,212,16.0,18.0,30,0.00,,,0.00,Wunderground v.1.15,2013-04-27 00:50:00,
2013-04-26 17:55:00,69.8,36.9,30.12,SW,214,17.0,18.0,30,0.00,,,0.00,Wunderground v.1.15,2013-04-27 00:55:00,
2013-04-26 18:00:00,69.7,36.9,30.12,SW,229,8.0,15.0,30,0.00,,,0.00,Wunderground v.1.15,2013-04-27 01:00:00,
2013-04-26 18:05:00,69.6,37.6,30.12,WSW,240,9.0,15.0,31,0.00,,,0.00,Wunderground v.1.15,2013-04-27 01:05:00,
2013-04-26 18:10:00,69.5,36.7,30.12,SSW,208,7.0,9.0,30,0.00,,,0.00,Wunderground v.1.15,2013-04-27 01:10:00,
2013-04-26 18:15:00,69.5,35.8,30.12,SW,234,14.0,16.0,29,0.00,,,0.00,Wunderground v.1.15,2013-04-27 01:15:00,
2013-04-26 18:21:00,69.5,34.9,30.11,SW,222,13.0,13.0,28,0.00,,,0.00,Wunderground v.1.15,2013-04-27 01:21:00,
2013-04-26 18:26:00,69.6,34.1,30.11,SW,234,10.0,16.0,27,0.00,,,0.00,Wunderground v.1.15,2013-04-27 01:26:00,
2013-04-26 18:31:00,69.4,34.9,30.11,SW,227,6.0,10.0,28,0.00,,,0.00,Wunderground v.1.15,2013-04-27 01:31:00,
2013-04-26 18:36:00,69.4,33.9,30.11,SW,217,6.0,13.0,27,0.00,,,0.00,Wunderground v.1.15,2013-04-27 01:36:00,
2013-04-26 18:41:00,69.4,34.9,30.11,SW,215,8.0,11.0,28,0.00,,,0.00,Wunderground v.1.15,2013-04-27 01:41:00,
2013-04-26 18:46:00,69.5,34.0,30.11,SW,230,8.0,11.0,27,0.00,,,0.00,Wunderground v.1.15,2013-04-27 01:46:00,
2013-04-26 18:51:00,69.7,34.2,30.10,SSW,205,7.0,10.0,27,0.00,,,0.00,Wunderground v.1.15,2013-04-27 01:51:00,
2013-04-26 18:57:00,69.5,34.0,30.10,SW,215,11.0,11.0,27,0.00,,,0.00,Wunderground v.1.15,2013-04-27 01:57:00,
2013-04-26 19:02:00,69.1,33.7,30.10,SSW,202,7.0,10.0,27,0.00,,,0.00,Wunderground v.1.15,2013-04-27 02:02:00,
2013-04-26 19:07:00,68.7,34.3,30.10,South,188,10.0,11.0,28,0.00,,,0.00,Wunderground v.1.15,2013-04-27 02:07:00,
2013-04-26 19:12:00,68.5,35.0,30.09,SSW,204,8.0,8.0,29,0.00,,,0.00,Wunderground v.1.15,2013-04-27 02:12:00,
2013-04-26 19:17:00,68.4,34.0,30.09,SSW,202,10.0,11.0,28,0.00,,,0.00,Wunderground v.1.15,2013-04-27 02:17:00,
2013-04-26 19:22:00,68.1,34.6,30.09,SSW,204,11.0,11.0,29,0.00,,,0.00,Wunderground v.1.15,2013-04-27 02:22:00,
2013-04-26 19:27:00,68.3,33.9,30.09,SSW,200,16.0,16.0,28,0.00,,,0.00,Wunderground v.1.15,2013-04-27 02:27:00,
2013-04-26 19:32:00,68.5,32.2,30.09,SW,232,15.0,18.0,26,0.00,,,0.00,Wunderground v.1.15,2013-04-27 02:32:00,
2013-04-26 19:37:00,68.6,31.3,30.09,SSW,211,7.0,18.0,25,0.00,,,0.00,Wunderground v.1.15,2013-04-27 02:37:00,
2013-04-26 19:42:00,68.5,30.3,30.09,SW,214,11.0,18.0,24,0.00,,,0.00,Wunderground v.1.15,2013-04-27 02:42:00,
2013-04-26 19:47:00,68.4,29.1,30.09,SW,232,11.0,18.0,23,0.00,,,0.00,Wunderground v.1.15,2013-04-27 02:47:00,
2013-04-26 19:52:00,68.3,29.0,30.10,SW,229,11.0,14.0,23,0.00,,,0.00,Wunderground v.1.15,2013-04-27 02:52:00,
2013-04-26 19:57:00,67.9,28.7,30.10,WSW,250,12.0,16.0,23,0.00,,,0.00,Wunderground v.1.15,2013-04-27 02:57:00,
2013-04-26 20:02:00,67.6,29.5,30.10,SW,227,8.0,14.0,24,0.00,,,0.00,Wunderground v.1.15,2013-04-27 03:02:00,
2013-04-26 20:08:00,67.3,29.2,30.10,WSW,254,8.0,14.0,24,0.00,,,0.00,Wunderground v.1.15,2013-04-27 03:08:00,
2013-04-26 20:13:00,67.0,30.0,30.10,WSW,238,8.0,12.0,25,0.00,,,0.00,Wunderground v.1.15,2013-04-27 03:13:00,
2013-04-26 20:18:00,66.7,29.7,30.11,SW,229,6.0,12.0,25,0.00,,,0.00,Wunderground v.1.15,2013-04-27 03:18:00,
2013-04-26 20:23:00,66.6,29.6,30.11,WSW,242,6.0,9.0,25,0.00,,,0.00,Wunderground v.1.15,2013-04-27 03:23:00,
2013-04-26 20:29:00,66.3,29.4,30.11,WSW,244,3.0,10.0,25,0.00,,,0.00,Wunderground v.1.15,2013-04-27 03:29:00,
2013-04-26 20:34:00,66.1,29.2,30.11,SW,229,7.0,10.0,25,0.00,,,0.00,Wunderground v.1.15,2013-04-27 03:34:00,
2013-04-26 20:39:00,65.9,29.1,30.11,SW,219,6.0,11.0,25,0.00,,,0.00,Wunderground v.1.15,2013-04-27 03:39:00,
2013-04-26 20:44:00,65.6,29.8,30.11,SW,223,8.0,10.0,26,0.00,,,0.00,Wunderground v.1.15,2013-04-27 03:44:00,
2013-04-26 20:49:00,65.6,29.8,30.11,SW,231,10.0,13.0,26,0.00,,,0.00,Wunderground v.1.15,2013-04-27 03:49:00,
2013-04-26 20:54:00,65.6,29.8,30.12,SW,225,13.0,15.0,26,0.00,,,0.00,Wunderground v.1.15,2013-04-27 03:54:00,
2013-04-26 20:59:00,65.5,29.7,30.12,SW,223,7.0,15.0,26,0.00,,,0.00,Wunderground v.1.15,2013-04-27 03:59:00,
2013-04-26 21:01:00,65.4,30.5,30.12,SW,229,13.0,15.0,27,0.00,,,0.00,Wunderground v.1.15,2013-04-27 04:01:00,
2013-04-26 21:02:00,65.4,29.6,30.11,SW,220,9.0,15.0,26,0.00,,,0.00,Wunderground v.1.15,2013-04-27 04:02:00,
2013-04-26 21:07:00,65.2,30.3,30.11,SW,220,12.0,15.0,27,0.00,,,0.00,Wunderground v.1.15,2013-04-27 04:07:00,
2013-04-26 21:12:00,64.9,30.1,30.11,SW,235,9.0,12.0,27,0.00,,,0.00,Wunderground v.1.15,2013-04-27 04:12:00,
2013-04-26 21:17:00,64.8,30.0,30.11,SW,235,12.0,16.0,27,0.00,,,0.00,Wunderground v.1.15,2013-04-27 04:17:00,
2013-04-26 21:22:00,64.7,29.9,30.12,SW,234,10.0,12.0,27,0.00,,,0.00,Wunderground v.1.15,2013-04-27 04:22:00,
2013-04-26 21:27:00,64.2,30.4,30.12,SW,233,9.0,14.0,28,0.00,,,0.00,Wunderground v.1.15,2013-04-27 04:27:00,
2013-04-26 21:32:00,64.0,30.2,30.12,SSW,211,10.0,15.0,28,0.00,,,0.00,Wunderground v.1.15,2013-04-27 04:32:00,
2013-04-26 21:37:00,63.1,31.1,30.12,SSW,197,9.0,15.0,30,0.00,,,0.00,Wunderground v.1.15,2013-04-27 04:37:00,
2013-04-26 21:42:00,62.4,30.5,30.12,SSW,207,9.0,11.0,30,0.00,,,0.00,Wunderground v.1.15,2013-04-27 04:42:00,
2013-04-26 21:47:00,62.3,31.3,30.12,SW,223,8.0,12.0,31,0.00,,,0.00,Wunderground v.1.15,2013-04-27 04:47:00,
2013-04-26 21:52:00,62.3,30.4,30.12,SW,223,8.0,12.0,30,0.00,,,0.00,Wunderground v.1.15,2013-04-27 04:52:00,
2013-04-26 21:57:00,62.2,30.4,30.12,SW,219,6.0,12.0,30,0.00,,,0.00,Wunderground v.1.15,2013-04-27 04:57:00,
2013-04-26 22:02:00,61.9,30.1,30.12,SW,220,10.0,12.0,30,0.00,,,0.00,Wunderground v.1.15,2013-04-27 05:02:00,
2013-04-26 22:07:00,61.8,30.8,30.12,SW,227,10.0,12.0,31,0.00,,,0.00,Wunderground v.1.15,2013-04-27 05:07:00,
2013-04-26 22:12:00,61.5,30.6,30.12,SW,220,8.0,9.0,31,0.00,,,0.00,Wunderground v.1.15,2013-04-27 05:12:00,
2013-04-26 22:17:00,61.2,30.3,30.12,SW,225,6.0,11.0,31,0.00,,,0.00,Wunderground v.1.15,2013-04-27 05:17:00,
2013-04-26 22:23:00,61.0,30.1,30.12,SW,234,9.0,10.0,31,0.00,,,0.00,Wunderground v.1.15,2013-04-27 05:23:00,
2013-04-26 22:28:00,60.8,29.9,30.12,SW,223,7.0,10.0,31,0.00,,,0.00,Wunderground v.1.15,2013-04-27 05:28:00,
2013-04-26 22:33:00,60.7,29.9,30.12,SW,222,9.0,10.0,31,0.00,,,0.00,Wunderground v.1.15,2013-04-27 05:33:00,
2013-04-26 22:38:00,60.6,30.6,30.11,SW,225,7.0,10.0,32,0.00,,,0.00,Wunderground v.1.15,2013-04-27 05:38:00,
2013-04-26 22:43:00,60.4,30.4,30.11,SW,223,6.0,9.0,32,0.00,,,0.00,Wunderground v.1.15,2013-04-27 05:43:00,
2013-04-26 22:48:00,60.2,30.2,30.11,SW,223,10.0,10.0,32,0.00,,,0.00,Wunderground v.1.15,2013-04-27 05:48:00,
2013-04-26 22:53:00,60.0,30.0,30.11,SW,219,8.0,10.0,32,0.00,,,0.00,Wunderground v.1.15,2013-04-27 05:53:00,
2013-04-26 22:59:00,59.9,29.9,30.11,SW,219,5.0,10.0,32,0.00,,,0.00,Wunderground v.1.15,2013-04-27 05:59:00,
2013-04-26 23:04:00,59.8,30.6,30.11,SSW,213,6.0,7.0,33,0.00,,,0.00,Wunderground v.1.15,2013-04-27 06:04:00,
2013-04-26 23:09:00,59.6,30.4,30.11,SSW,210,7.0,8.0,33,0.00,,,0.00,Wunderground v.1.15,2013-04-27 06:09:00,
2013-04-26 23:14:00,59.3,30.9,30.11,SSW,211,6.0,7.0,34,0.00,,,0.00,Wunderground v.1.15,2013-04-27 06:14:00,
2013-04-26 23:19:00,59.0,30.6,30.11,SSW,207,7.0,7.0,34,0.00,,,0.00,Wunderground v.1.15,2013-04-27 06:19:00,
2013-04-26 23:24:00,58.7,30.4,30.11,SSW,207,7.0,7.0,34,0.00,,,0.00,Wunderground v.1.15,2013-04-27 06:24:00,
2013-04-26 23:29:00,58.5,30.9,30.11,SSW,202,6.0,8.0,35,0.00,,,0.00,Wunderground v.1.15,2013-04-27 06:29:00,
2013-04-26 23:34:00,58.4,30.8,30.11,SSW,207,7.0,7.0,35,0.00,,,0.00,Wunderground v.1.15,2013-04-27 06:34:00,
2013-04-26 23:39:00,58.2,30.7,30.11,SSW,213,5.0,7.0,35,0.00,,,0.00,Wunderground v.1.15,2013-04-27 06:39:00,
2013-04-26 23:44:00,58.4,30.8,30.11,SW,215,7.0,8.0,35,0.00,,,0.00,Wunderground v.1.15,2013-04-27 06:44:00,
2013-04-26 23:49:00,58.8,30.5,30.10,SSW,207,7.0,12.0,34,0.00,,,0.00,Wunderground v.1.15,2013-04-27 06:49:00,
2013-04-26 23:54:00,58.6,31.0,30.10,SSW,208,7.0,8.0,35,0.00,,,0.00,Wunderground v.1.15,2013-04-27 06:54:00,
2013-04-26 23:59:00,58.5,30.9,30.10,SSW,205,7.0,11.0,35,0.00,,,0.00,Wunderground v.1.15,2013-04-27 06:59:00,